Hourly Data Report for October 11, 2013

All times are specified in Local Standard Time (LST). Add 1 hour to adjust for Daylight Saving Time where and when it is observed.

KITCHENER/WATERLOO
ONTARIO

43°27'39.000" N
80°22'43.000" W
321.60 m
6144239
71368
YKF

Download Data

Hourly Data (October 2013)
Hourly Data Report for October 11, 2013
Temp Definition
°C
Dew Point Temp Definition
°C
Rel Hum Definition
%
Wind Dir Definition
10's deg

Wind Spd Definition
km/h
Visibility Definition
km
Stn Press Definition
kPa
Hmdx Definition


Wind Chill Definition


Weather Definition


TIME
00:00 Legend Double Dagger 4.8 4.3 97 36 9 12.9 98.30     LegendNANA
01:00 Legend Double Dagger 4.2 3.8 97 30 5 12.9 98.31     LegendNANA
02:00 Legend Double Dagger 3.6 3.3 98 30 4 16.1 98.29     LegendNANA
03:00 Legend Double Dagger 3.6 3.3 98 LegendMM 4 14.5 98.24     LegendNANA
04:00 Legend Double Dagger 2.2 1.6 96   0 16.1 98.27     LegendNANA
05:00 Legend Double Dagger 2.3 2.0 98 31 5 16.1 98.31     LegendNANA
06:00 Legend Double Dagger 2.0 1.9 99 35 4 8.1 98.31     LegendNANA
07:00 Legend Double Dagger 2.3 2.2 99 31 4 14.5 98.33     LegendNANA
08:00 Legend Double Dagger 7.2 5.4 88 35 8 16.1 98.40     LegendNANA
09:00 Legend Double Dagger 12.4 7.7 73 7 8 16.1 98.40     LegendNANA
10:00 Legend Double Dagger 15.2 8.3 63 8 11 16.1 98.41     LegendNANA
11:00 Legend Double Dagger 17.9 4.2 40 9 13 16.1 98.35     LegendNANA
12:00 Legend Double Dagger 19.7 3.3 33 11 17 16.1 98.31     LegendNANA
13:00 Legend Double Dagger 20.4 3.1 32 12 11 16.1 98.26     LegendNANA
14:00 Legend Double Dagger 20.9 4.3 33 10 11 16.1 98.22     LegendNANA
15:00 Legend Double Dagger 20.9 4.6 34 10 13 16.1 98.21     LegendNANA
16:00 Legend Double Dagger 20.3 7.1 42 9 13 16.1 98.19     LegendNANA
17:00 Legend Double Dagger 17.9 7.0 48 10 13 16.1 98.23     LegendNANA
18:00 Legend Double Dagger 13.2 5.2 58 10 8 16.1 98.27     LegendNANA
19:00 Legend Double Dagger 9.9 5.0 72 1 4 12.9 98.27     LegendNANA
20:00 Legend Double Dagger 7.9 5.8 86   0 16.1 98.28     LegendNANA
21:00 Legend Double Dagger 7.5 5.3 86 34 5 16.1 98.29     LegendNANA
22:00 Legend Double Dagger 6.7 5.6 92   0 16.1 98.27     LegendNANA
23:00 Legend Double Dagger 5.7 5.0 95   0 16.1 98.25     LegendNANA

Notes on Data Quality.

Legend

  • E = Estimated
  • M = Missing
  • NA = Not Available
  • ‡ = Partner data that is not subject to review by the National Climate Archives
Date modified: